[[{"header":{"parameterUnit":"m.s-1","parameterCategory":1,"la1":30.2991,"la2":30.254,"lo1":-89.0895,"lo2":-89.0444,"dy":0.0017,"dx":0.0017,"nx":28,"ny":28,"refTime":"2025-03-31T21:00:00:Z","depth":0,"parameterNumber":2,"parameterNumberName":"U-component_of_WINDS"},"data":[0,0,0,0,0,0,0,0,0,0,0,0,0,0,0,0,0,0,0,0,0,0,0,0,0,0,0,0,0,0,0,0,0,0,0,0,0,0,0,0,0,0,0,0,0,0,0,0,0,0,0,0,0,0,0,0,0,0,-4.2859,-4.2859,0,-4.2875,-4.2875,-4.2875,-4.2802,-4.28,-4.2797,-4.2795,-4.2816,-4.2819,-4.2821,0,0,0,0,0,0,0,0,0,0,0,0,0,-4.277,-4.2772,-4.2859,-4.2859,-4.286,-4.2875,-4.2875,-4.2875,-4.2802,-4.2799,-4.2797,-4.2794,-4.2815,-4.2818,-4.2821,0,0,0,0,0,0,0,0,0,0,0,0,0,-4.28,-4.2773,-4.2859,-4.2825,-4.2822,-4.2875,-4.2875,-4.2875,-4.2803,-4.2799,-4.2796,-4.2793,-4.2814,-4.2818,-4.2822,-4.291,0,0,-4.2834,-4.2835,0,0,0,0,0,0,0,0,-4.2798,-4.2803,-4.283,-4.2827,-4.2824,-4.2833,-4.2851,-4.2887,-4.2803,-4.281,-4.2795,-4.2792,-4.2825,-4.2828,-4.2838,-4.2911,-4.2912,-4.2834,-4.2836,-4.2838,-4.2839,0,0,0,0,0,0,0,-4.2796,-4.2802,-4.2865,-4.283,-4.2827,-4.281,-4.2811,-4.2858,-4.2836,-4.2809,-4.2804,-4.2807,-4.2823,-4.2834,-4.2838,-4.2912,-4.2834,-4.2837,-4.284,-4.2841,-4.3058,-4.3062,0,0,0,0,0,0,-4.2798,-4.2801,-4.2865,-4.2866,-4.2803,-4.2814,-4.2815,-4.2833,-4.2835,-4.2832,-4.2809,-4.2803,-4.2829,-4.2833,-4.2838,-4.294,-4.2838,-4.2842,-4.2844,-4.3055,-4.3059,-4.3063,0,0,0,0,0,0,-4.2796,-4.2804,-4.2864,-4.2832,-4.2838,-4.2819,-4.2841,-4.2835,-4.2847,-4.2835,-4.2831,-4.2825,-4.2827,-4.2833,-4.2892,-4.2939,-4.2843,-4.2847,-4.3051,-4.3056,-4.3061,-4.3145,0,0,0,0,0,0,-4.2794,-4.2804,-4.2836,-4.2833,-4.284,-4.2917,-4.2844,-4.2838,-4.2853,-4.2845,-4.2848,-4.2846,-4.2825,-4.2887,-4.2896,-4.2943,-4.285,-4.3047,-4.3053,-4.3059,-4.3138,-4.3152,-4.3165,0,0,0,0,0,-4.2791,-4.2861,-4.2838,-4.2847,-4.288,-4.292,-4.2924,-4.2897,-4.2857,-4.289,-4.2882,-4.2846,-4.2934,-4.2894,-4.2903,-4.2952,-4.3043,-4.3051,-4.3059,-4.3132,-4.315,-4.3165,0,0,0,0,0,0,-4.2871,-4.2859,-4.2835,-4.2905,-4.2914,-4.2907,-4.2947,-4.2917,-4.2938,-4.293,-4.2898,-4.2899,-4.2964,-4.2965,-4.292,-4.3037,-4.2982,-4.2992,-4.3034,-4.3051,-4.3064,-4.3061,-4.2853,0,0,0,0,0,-4.2897,-4.2929,-4.2918,-4.2981,-4.2986,-4.2967,-4.2983,-4.2962,-4.297,-4.2974,-4.297,-4.2981,-4.3011,-4.3032,-4.3059,-4.3139,-4.3138,-4.3178,-4.3191,-4.3202,-4.321,-4.3252,-4.3268,-4.3089,-4.3089,-4.3088,0,0,-4.295,-4.2948,-4.297,-4.2997,-4.3001,-4.3036,-4.297,-4.301,-4.3035,-4.298,-4.3035,-4.3034,-4.3044,-4.3114,-4.3144,-4.3116,-4.326,-4.3212,-4.3221,-4.3223,-4.3261,-4.3278,-4.3293,-4.3094,-4.3093,-4.3092,0,0,-4.3065,-4.3067,-4.3118,-4.3124,-4.3131,-4.3117,-4.313,-4.3129,-4.3125,-4.3179,-4.3138,-4.317,-4.3223,-4.3231,-4.3242,-4.3361,-4.3328,-4.3372,-4.3441,-4.3481,-4.3495,-4.3508,-4.3548,-4.3563,-4.338,-4.3381,-4.3381,0,-4.313,-4.3179,-4.315,-4.3191,-4.3204,-4.3155,-4.3208,-4.3215,-4.3232,-4.3242,-4.3211,-4.3275,-4.3279,-4.3349,-4.3378,-4.339,-4.3403,-4.3369,-4.3496,-4.3508,-4.3519,-4.3557,-4.3572,-4.3386,-4.3385,-4.3385,-4.3384,0,-4.3259,-4.3294,-4.3335,-4.335,-4.3368,-4.3415,-4.3394,-4.3416,-4.3394,-4.3385,-4.3441,-4.3444,-4.347,-4.3486,-4.3466,-4.3554,-4.3535,-4.3501,-4.3443,-4.3541,-4.3576,-4.3591,-4.3393,-4.3391,-4.3389,-4.3388,0,0,-4.342,-4.3419,-4.3434,-4.344,-4.3445,-4.3472,-4.3518,-4.3542,-4.3561,-4.3575,-4.3612,-4.3659,-4.3626,-4.3639,-4.362,-4.3656,-4.3748,-4.3616,-4.3616,-4.3638,-4.3843,-4.3866,-4.3884,-4.3727,-4.373,-4.3732,-4.3841,0,-4.353,-4.3605,-4.3581,-4.3658,-4.3689,-4.3645,-4.3685,-4.3693,-4.3686,-4.3713,-4.3706,-4.3738,-4.3694,-4.3701,-4.3735,-4.3729,-4.3788,-4.3722,-4.3761,-4.3762,-4.3756,-4.3902,-4.3928,-4.403,-4.3855,-4.3857,-4.3859,0,-4.3667,-4.3684,-4.3764,-4.3762,-4.3775,-4.3811,-4.3831,-4.3858,-4.3867,-4.3859,-4.3874,-4.3847,-4.3894,-4.3839,-4.3902,-4.3857,-4.3873,-4.3873,-4.3876,-4.3876,-4.3814,-4.3903,-4.4062,-4.4076,-4.3881,-4.3879,-4.3877,0,-4.3773,-4.3817,-4.387,-4.3877,-4.3878,-4.3904,-4.3906,-4.3912,-4.3928,-4.3946,-4.3956,-4.3981,-4.3994,-4.4015,-4.3996,-4.3958,-4.4062,-4.4006,-4.4056,-4.4056,-4.4076,-4.4075,-4.4237,-4.4093,-4.4092,-4.4092,-4.4092,0,-4.3896,-4.3945,-4.3917,-4.3949,-4.4004,-4.3977,-4.4033,-4.403,-4.4036,-4.4068,-4.4033,-4.4064,-4.4038,-4.4068,-4.4054,-4.4107,-4.4115,-4.411,-4.4105,-4.4111,-4.4111,-4.4117,-4.4109,-4.4096,-4.4095,-4.4095,-4.4094,0,-4.4022,-4.4005,-4.4059,-4.4056,-4.4057,-4.4097,-4.4095,-4.4125,-4.4116,-4.4157,-4.4165,-4.4152,-4.4184,-4.4168,-4.4203,-4.4194,-4.4262,-4.4249,-4.4258,-4.4253,-4.4303,-4.4297,-4.4472,-4.4493,-4.4339,-4.434,-4.4341,0,-4.4099,-4.4136,-4.4137,-4.4154,-4.4158,-4.4188,-4.4204,-4.418,-4.4198,-4.4212,-4.424,-4.427,-4.4291,-4.4346,-4.434,-4.4366,-4.4352,-4.4412,-4.4356,-4.436,-4.4349,-4.4346,-4.4349,-4.4422,-4.4424,-4.4425,-4.4426,0,-4.4237,-4.4227,-4.425,-4.4271,-4.4291,-4.4306,-4.4319,-4.4337,-4.4313,-4.4336,-4.4367,-4.4384,-4.4419,-4.4448,-4.4472,-4.4475,-4.4447,-4.4445,-4.4457,-4.4461,-4.4463,-4.446,-4.4285,-4.444,-4.4438,-4.4437,-4.4437,-4.4436,-4.4339,-4.4369,-4.4374,-4.4401,-4.4408,-4.4421,-4.4449,-4.4444,-4.4469,-4.4494,-4.448,-4.4517,-4.4526,-4.4554,-4.4562,-4.4591,-4.4567,-4.4586,-4.459,-4.4594,-4.4599,-4.4462,-4.4596,-4.4595,-4.4595,-4.4595,-4.4595,0,-4.4472,-4.4473,-4.4499,-4.4517,-4.4539,-4.4511,-4.4524,-4.4544,-4.4576,-4.4587,-4.4609,-4.4646,-4.4674,-4.4671,-4.4698,-4.4722,-4.471,-4.4729,-4.4725,-4.4726,-4.4621,-4.4605,-4.4739,-4.4739,-4.4739,-4.4739,-4.4739,-4.4739,-4.4544,-4.4592,-4.4584,-4.4636,-4.4638,-4.4672,-4.4682,-4.4694,-4.4702,-4.4744,-4.4767,-4.4765,-4.477,-4.4797,-4.4822,-4.4821,-4.4831,-4.4855,-4.4848,-4.4749,-4.4734,-4.472,-4.4706,-4.4858,-4.4858,-4.4951,-4.4952,-4.4953]},{"header":{"parameterUnit":"m.s-1","parameterCategory":1,"la1":30.2991,"la2":30.254,"lo1":-89.0895,"lo2":-89.0444,"dy":0.0017,"dx":0.0017,"nx":28,"ny":28,"refTime":"2025-03-31T21:00:00:Z","depth":0,"parameterNumber":3,"parameterNumberName":"V-component_of_WINDS"},"data":[0,0,0,0,0,0,0,0,0,0,0,0,0,0,0,0,0,0,0,0,0,0,0,0,0,0,0,0,0,0,0,0,0,0,0,0,0,0,0,0,0,0,0,0,0,0,0,0,0,0,0,0,0,0,0,0,0,0,1.8456,1.8457,0,1.8574,1.8575,1.8577,1.8666,1.8667,1.8668,1.8668,1.8784,1.8786,1.8788,0,0,0,0,0,0,0,0,0,0,0,0,0,1.8304,1.8306,1.8456,1.8458,1.8459,1.8574,1.8575,1.8577,1.8666,1.8667,1.8668,1.8669,1.8783,1.8786,1.8788,0,0,0,0,0,0,0,0,0,0,0,0,0,1.839,1.8307,1.8456,1.8517,1.8524,1.8573,1.8575,1.8577,1.8666,1.8667,1.8668,1.8669,1.8782,1.8785,1.8789,1.8785,0,0,1.8799,1.8801,0,0,0,0,0,0,0,0,1.8385,1.8396,1.8507,1.8513,1.8521,1.8607,1.8564,1.8647,1.8665,1.8612,1.8668,1.867,1.8723,1.8732,1.8751,1.879,1.8795,1.8799,1.8802,1.8803,1.8804,0,0,0,0,0,0,0,1.8379,1.8391,1.8503,1.8508,1.8517,1.8538,1.8551,1.858,1.8659,1.8616,1.8623,1.8636,1.8727,1.8747,1.8754,1.8797,1.8799,1.8802,1.8805,1.8806,1.884,1.8839,0,0,0,0,0,0,1.8364,1.8386,1.8499,1.8506,1.8455,1.8539,1.8555,1.8578,1.8659,1.8673,1.8635,1.864,1.8741,1.875,1.8759,1.8761,1.8803,1.8806,1.8808,1.8841,1.884,1.8838,0,0,0,0,0,0,1.8361,1.8374,1.8494,1.8448,1.8465,1.8541,1.8566,1.8579,1.86,1.8673,1.8687,1.8641,1.8742,1.8754,1.8778,1.8766,1.8808,1.8811,1.8842,1.8841,1.8839,1.8764,0,0,0,0,0,0,1.8356,1.8372,1.8372,1.8447,1.8467,1.8513,1.8565,1.8581,1.8606,1.8613,1.8683,1.8695,1.8744,1.8773,1.8782,1.8772,1.8814,1.8844,1.8842,1.884,1.8768,1.876,1.8753,0,0,0,0,0,1.835,1.8345,1.8372,1.8385,1.8469,1.8512,1.8523,1.8581,1.8604,1.8605,1.8652,1.8693,1.8766,1.8774,1.8785,1.8776,1.8845,1.8842,1.884,1.8771,1.8762,1.8753,0,0,0,0,0,0,1.8264,1.8356,1.8387,1.8405,1.8451,1.8527,1.853,1.8569,1.8607,1.8612,1.8681,1.8695,1.8713,1.8747,1.8755,1.8777,1.881,1.881,1.8755,1.8746,1.8739,1.8731,1.8816,0,0,0,0,0,1.8248,1.8276,1.8354,1.8363,1.8384,1.8453,1.8474,1.8515,1.8563,1.8582,1.8631,1.8676,1.8709,1.8729,1.8763,1.8773,1.8789,1.8772,1.8764,1.8758,1.8757,1.8765,1.8759,1.883,1.883,1.883,0,0,1.8213,1.8267,1.828,1.8347,1.8387,1.8414,1.8468,1.8494,1.8515,1.8586,1.8613,1.865,1.8704,1.8722,1.8732,1.875,1.8741,1.8754,1.8749,1.8752,1.8762,1.8755,1.8749,1.8828,1.8829,1.8829,0,0,1.8165,1.8208,1.8222,1.8261,1.8321,1.8367,1.8369,1.8441,1.8469,1.8498,1.8552,1.8576,1.8631,1.8668,1.8694,1.866,1.8699,1.8669,1.8631,1.8638,1.8633,1.8628,1.8617,1.8612,1.8668,1.8667,1.8667,0,1.8114,1.8159,1.8223,1.8247,1.8275,1.8342,1.8355,1.8389,1.8457,1.8474,1.8494,1.8566,1.8607,1.8635,1.8627,1.8645,1.865,1.8662,1.8629,1.8625,1.8621,1.8612,1.8607,1.8663,1.8664,1.8664,1.8665,0,1.8095,1.8125,1.8128,1.8194,1.8222,1.824,1.8305,1.8326,1.8364,1.8407,1.8436,1.8487,1.8534,1.8543,1.8579,1.8576,1.8586,1.8616,1.8651,1.861,1.8602,1.8599,1.8658,1.8659,1.866,1.8661,0,0,1.7996,1.8098,1.8098,1.813,1.8201,1.8225,1.8246,1.8294,1.831,1.8354,1.8374,1.8419,1.8448,1.8477,1.8519,1.8525,1.8497,1.8555,1.8557,1.8544,1.8497,1.8475,1.847,1.8523,1.8522,1.8522,1.8493,0,1.796,1.8004,1.8062,1.8086,1.8115,1.8179,1.8198,1.8243,1.8283,1.8313,1.8357,1.8389,1.8424,1.8442,1.8452,1.8498,1.8488,1.8501,1.8541,1.8542,1.8527,1.8466,1.8442,1.8413,1.849,1.849,1.8489,0,1.7925,1.7968,1.7995,1.8066,1.808,1.8096,1.8145,1.8172,1.8224,1.8254,1.8287,1.8332,1.8356,1.8387,1.8421,1.8429,1.8448,1.8473,1.8474,1.8481,1.8514,1.8472,1.8404,1.84,1.8485,1.8485,1.8486,0,1.7852,1.7916,1.7942,1.7966,1.8049,1.8059,1.8093,1.8147,1.8172,1.8214,1.8231,1.8274,1.8298,1.8329,1.8384,1.8401,1.8413,1.8448,1.8438,1.8437,1.8439,1.8438,1.8374,1.8448,1.8448,1.8448,1.8449,0,1.7807,1.7822,1.7911,1.7926,1.7945,1.801,1.8026,1.8065,1.8113,1.8137,1.8193,1.8214,1.8285,1.8313,1.8356,1.8379,1.8388,1.8412,1.8424,1.8408,1.8405,1.8423,1.8427,1.8447,1.8448,1.8448,1.8448,0,1.773,1.779,1.7822,1.7898,1.7917,1.7927,1.7992,1.8009,1.8053,1.8082,1.8093,1.8161,1.8198,1.8256,1.8309,1.8338,1.8353,1.8371,1.8336,1.8344,1.8331,1.8332,1.8278,1.8274,1.8348,1.8347,1.8346,0,1.7698,1.7711,1.7789,1.781,1.7843,1.7876,1.7903,1.7967,1.7992,1.8053,1.8063,1.8104,1.8141,1.8197,1.825,1.8291,1.8312,1.829,1.8318,1.8303,1.8313,1.8312,1.8315,1.8283,1.8282,1.8281,1.8281,0,1.7636,1.7665,1.7703,1.7751,1.7782,1.7822,1.7864,1.7878,1.7951,1.7976,1.8016,1.8045,1.81,1.8141,1.8189,1.8223,1.8264,1.8271,1.8271,1.8256,1.8236,1.8249,1.832,1.8272,1.8273,1.8274,1.8274,1.8275,1.7582,1.7597,1.7655,1.7695,1.7734,1.7773,1.7793,1.7841,1.7875,1.7927,1.7962,1.8,1.8052,1.8122,1.8153,1.8183,1.82,1.82,1.82,1.82,1.8195,1.823,1.8191,1.8192,1.8192,1.8192,1.8192,0,1.7524,1.7565,1.7601,1.766,1.7691,1.7728,1.7778,1.7801,1.7834,1.788,1.7916,1.7961,1.8001,1.8058,1.8101,1.8114,1.8134,1.8123,1.8124,1.8131,1.8175,1.8172,1.8107,1.8107,1.8107,1.8107,1.8107,1.8107,1.7498,1.7526,1.7562,1.7611,1.7651,1.769,1.7715,1.7751,1.7788,1.7837,1.7871,1.7909,1.7959,1.8007,1.8045,1.8061,1.8074,1.8058,1.808,1.812,1.8128,1.8136,1.8133,1.8061,1.806,1.8034,1.8033,1.8033]}]]